Regional Weather Roundup
Issued by NWS

Home | Current Version | Previous Version | Text Only | Print | Product List | Glossary On
Versions: 1 2 3 4 5 6 7 8 9 10 11 12 13 14 15 16 17 18 19 20 21 22 23 24 25 26 27 28 29 30 31 32 33 34 35 36 37 38 39 40 41 42 43 44 45 46 47 48 49 50
000
ASUS43 KOAX 010510
RWRNE

WEATHER ROUNDUP FOR NEBRASKA
NATIONAL WEATHER SERVICE OMAHA NE
1200 AM CDT WED APR 01 2015

NOTES: SATELLITE DATA IS BEING USED TO AUGMENT CLOUD COVER ABOVE
       12000 FEET.
       "FAIR" INDICATES FEW OR NO CLOUDS BELOW 12,000 FEET WITH NO
       SIGNIFICANT WEATHER AND/OR OBSTRUCTIONS TO VISIBILITY.

  * THESE STATIONS DO NOT REPORT WEATHER SUCH AS RAIN...SNOW OR FOG.

NEZ001>004-019>022-054>056-010600-
NEBRASKA PANHANDLE

CITY           SKY/WX    TMP DP  RH WIND       PRES   REMARKS
SCOTTSBLUFF    PTCLDY    51  23  33 SE8       29.71F
ALLIANCE       PTCLDY    48  24  39 S15       29.71F
CHADRON        PTCLDY    66  22  18 S22       29.62F
KIMBALL        PTCLDY    55  19  25 SW8       29.78S
SIDNEY         CLEAR     54  21  27 S14       29.77F
$$

NEZ057>060-069>072-079>082-010600-
SOUTHWEST NEBRASKA

CITY           SKY/WX    TMP DP  RH WIND       PRES   REMARKS
NORTH PLATTE   CLEAR     64  27  24 S18G28    29.75
IMPERIAL       CLEAR     57  21  24 S12       29.77F
LEXINGTON      CLEAR     63  30  28 S16G24    29.79F
MCCOOK         CLEAR     62  29  28 S14G24    29.78F
OGALLALA       CLEAR     58  22  24 S10       29.74F
$$

NEZ005>010-023>029-035>040-094-010600-
NORTH CENTRAL NEBRASKA

CITY           SKY/WX    TMP DP  RH WIND       PRES   REMARKS
VALENTINE      PTCLDY    62  25  24 S16       29.68F
AINSWORTH      PTCLDY    57  28  32 S15       29.71F
BROKEN BOW     CLEAR     62  30  29 S10       29.78F
O`NEILL        PTCLDY    58  31  35 S12       29.74F
ORD            CLEAR     61  29  29 S13       29.76F
THEDFORD       PTCLDY    63  28  27 S14       29.74F
$$

NEZ041-046>049-061>064-073>077-083>087-010600-
SOUTH CENTRAL NEBRASKA

CITY           SKY/WX    TMP DP  RH WIND       PRES   REMARKS
GRAND ISLAND   CLEAR     59  31  34 S14       29.81F
AURORA         CLEAR     60  31  33 S15       29.82F
HASTINGS       CLEAR     59  32  36 S9        29.82F
HEBRON         CLEAR     56  32  40 SE7       29.84F
HOLDREGE       CLEAR     58  29  32 S15       29.81F
KEARNEY *      CLEAR     57  30  35 S16       29.81F
YORK           PTCLDY    57  34  41 S13       29.83F
$$

NEZ011>018-030>034-042>045-010600-
NORTHEAST NEBRASKA

CITY           SKY/WX    TMP DP  RH WIND       PRES   REMARKS
NORFOLK        CLEAR     60  33  36 S14       29.79F
ALBION         CLEAR     54  30  40 SE7       29.80F
BLAIR          CLEAR     62  29  29 S12       29.86F
COLUMBUS *     CLEAR     61  30  31 S15       29.84F
FREMONT        CLEAR     62  31  31 SE12      29.84F
TEKAMAH        CLEAR     50  28  42 S6        29.84F
WAYNE          CLEAR     54  32  44 S12       29.81F
$$

NEZ050>053-065>068-078-088>093-010600-
SOUTHEAST NEBRASKA

CITY           SKY/WX    TMP DP  RH WIND       PRES   REMARKS
LINCOLN        CLEAR     53  35  50 S8        29.86F
OMAHA EPPLEY   PTCLDY    59  34  39 S7        29.86F
BEATRICE       CLEAR     58  34  40 SE9       29.87S
FALLS CITY     CLEAR     52  33  48 SE7       29.90F
NEBRASKA CITY  CLEAR     53  28  38 S8        29.88F
PLATTSMOUTH    CLEAR     59  26  28 SE9       29.88S
$$

NEZ044-045-051>053-067-010600-
OMAHA AREA

CITY           SKY/WX    TMP DP  RH WIND       PRES   REMARKS
OMAHA EPPLEY   PTCLDY    59  34  39 S7        29.86F
BLAIR          CLEAR     62  29  29 S12       29.86F
FREMONT        CLEAR     62  31  31 SE12      29.84F
MILLARD        CLEAR     58  33  38 SE5       29.86F
OFFUTT AFB     CLEAR     47  33  57 E6        29.86F
PLATTSMOUTH    CLEAR     59  26  28 SE9       29.88S
WAHOO          FAIR      51  31  46 SE8       29.85S
$$


USA.gov is the U.S. government's official web portal to all federal, state and local government web resources and services.